Location: Ash Swamp
(41.5170°N, 74.6157°W)
Time: 16:54:54
(UTC+00:00)

IRIDIUM 106 - Pass Details

Date: 14 July 2020
Orbit: 776 x 779 km, 86.4° (Epoch: 05 August)

Event Time Altitude Azimuth Distance (km) Brightness Sun altitude
Exits shadow 03:54:18 70° 194° (SSW) 830 4.2 -24.8°
Maximum altitude 03:54:56 86° 272° (W) 787 4.2 -24.9°
Drops below altitude 10° 04:00:11 10° 2° (N) 2,339 7.7 -25.1°
Sets 04:02:32 0° 3° (N) 3,270 8.7 -25.3°
